[[{"header":{"parameterUnit":"m.s-1","parameterCategory":1,"la1":30.2991,"la2":30.254,"lo1":-89.0895,"lo2":-89.0444,"dy":0.0017,"dx":0.0017,"nx":28,"ny":28,"refTime":"2025-03-13T09:00:00:Z","depth":0,"parameterNumber":2,"parameterNumberName":"U-component_of_WINDS"},"data":[0,0,0,0,0,0,0,0,0,0,0,0,0,0,0,0,0,0,0,0,0,0,0,0,0,0,0,0,0,0,0,0,0,0,0,0,0,0,0,0,0,0,0,0,0,0,0,0,0,0,0,0,0,0,0,0,0,0,1.0866,1.0867,0,1.0904,1.0904,1.0905,1.0872,1.087,1.0869,1.0868,1.0908,1.0911,1.0913,0,0,0,0,0,0,0,0,0,0,0,0,0,1.0769,1.0771,1.0866,1.0867,1.0867,1.0904,1.0904,1.0905,1.0872,1.087,1.0869,1.0867,1.0908,1.091,1.0913,0,0,0,0,0,0,0,0,0,0,0,0,0,1.0809,1.0771,1.0866,1.0855,1.0855,1.0904,1.0904,1.0905,1.0872,1.087,1.0868,1.0866,1.0907,1.091,1.0914,1.0976,0,0,1.0924,1.0926,0,0,0,0,0,0,0,0,1.0807,1.0813,1.0856,1.0856,1.0855,1.0881,1.0885,1.0929,1.0873,1.0866,1.0868,1.0865,1.0901,1.0905,1.0917,1.0978,1.098,1.0925,1.0927,1.0928,1.0929,0,0,0,0,0,0,0,1.0804,1.0811,1.0881,1.0857,1.0856,1.0849,1.0853,1.0893,1.0894,1.0866,1.0864,1.0869,1.09,1.0913,1.0917,1.098,1.0925,1.0928,1.093,1.0931,1.1096,1.1098,0,0,0,0,0,0,1.0802,1.0809,1.088,1.0882,1.0826,1.0853,1.0856,1.0875,1.0894,1.0895,1.087,1.0867,1.0908,1.0913,1.0919,1.0993,1.0928,1.0932,1.0934,1.1094,1.1096,1.1099,0,0,0,0,0,0,1.08,1.0809,1.0878,1.0845,1.0853,1.0856,1.0877,1.0877,1.0889,1.0897,1.0897,1.0883,1.0907,1.0914,1.0962,1.0994,1.0933,1.0936,1.1091,1.1094,1.1098,1.1143,0,0,0,0,0,0,1.0797,1.0808,1.0831,1.0846,1.0855,1.0921,1.0879,1.0879,1.0895,1.0891,1.0909,1.091,1.0906,1.0957,1.0966,1.0998,1.0939,1.1088,1.1092,1.1096,1.1138,1.1147,1.1155,0,0,0,0,0,1.0794,1.0843,1.0833,1.0841,1.0884,1.0923,1.0928,1.0922,1.0898,1.0922,1.0927,1.0909,1.0989,1.0962,1.0972,1.1005,1.1086,1.1091,1.1096,1.1135,1.1146,1.1155,0,0,0,0,0,0,1.0833,1.0845,1.0833,1.0888,1.0905,1.0917,1.0946,1.0933,1.0957,1.0952,1.0944,1.0948,1.1,1.1007,1.0977,1.1067,1.1034,1.1041,1.106,1.107,1.1078,1.1075,1.0942,0,0,0,0,0,1.0848,1.0877,1.0886,1.0934,1.0943,1.0943,1.096,1.0953,1.097,1.0977,1.0986,1.1004,1.1033,1.1052,1.1079,1.114,1.1143,1.1168,1.1176,1.1183,1.1189,1.1222,1.1233,1.1115,1.1115,1.1115,0,0,1.0879,1.0889,1.0908,1.0942,1.0954,1.0985,1.0949,1.0984,1.1008,1.0983,1.1029,1.1036,1.1055,1.111,1.1135,1.1118,1.1222,1.1189,1.1194,1.1197,1.1228,1.1239,1.1249,1.1119,1.1118,1.1118,0,0,1.0951,1.0962,1.1003,1.1016,1.1034,1.1034,1.1044,1.1059,1.1062,1.1108,1.109,1.1119,1.1169,1.1184,1.1198,1.1277,1.1262,1.1286,1.1329,1.1361,1.137,1.1378,1.1407,1.1417,1.1292,1.1292,1.1293,0,1.0988,1.1034,1.1026,1.1062,1.1077,1.1056,1.1098,1.1111,1.1138,1.1149,1.113,1.1193,1.1205,1.1263,1.1282,1.1294,1.1306,1.1284,1.1369,1.1378,1.1385,1.1412,1.1423,1.1295,1.1295,1.1295,1.1294,0,1.1078,1.111,1.1141,1.1167,1.1186,1.1225,1.1223,1.1244,1.1236,1.1239,1.1287,1.13,1.1329,1.1343,1.1336,1.14,1.139,1.137,1.1337,1.1399,1.1424,1.1435,1.1299,1.1298,1.1297,1.1297,0,0,1.1175,1.1196,1.1208,1.1219,1.1238,1.1264,1.1302,1.133,1.1348,1.1368,1.14,1.1444,1.1426,1.1442,1.1437,1.1465,1.1527,1.1443,1.1443,1.1458,1.16,1.1614,1.1626,1.1518,1.152,1.1521,1.1598,0,1.1248,1.1314,1.1308,1.1371,1.1401,1.1382,1.1415,1.1431,1.1435,1.1462,1.1466,1.1497,1.1471,1.1481,1.1508,1.1514,1.1556,1.1508,1.1548,1.155,1.1544,1.1639,1.1654,1.1725,1.1608,1.1609,1.1611,0,1.1342,1.1364,1.143,1.1445,1.1457,1.1487,1.1513,1.1539,1.1557,1.1558,1.1576,1.1566,1.1606,1.1572,1.1627,1.1595,1.1611,1.1616,1.1619,1.1622,1.1584,1.1645,1.1748,1.1759,1.1626,1.1625,1.1624,0,1.1406,1.1453,1.1498,1.1508,1.1527,1.1549,1.1558,1.1574,1.1592,1.1615,1.1626,1.1654,1.1669,1.1692,1.169,1.1665,1.1746,1.1711,1.1748,1.1748,1.1765,1.1764,1.1873,1.1777,1.1776,1.1776,1.1776,0,1.1488,1.1529,1.1527,1.1555,1.16,1.1594,1.1639,1.1646,1.1661,1.169,1.1676,1.1704,1.17,1.1729,1.1728,1.1773,1.1781,1.1783,1.1782,1.1784,1.1784,1.1794,1.1789,1.1779,1.1778,1.1778,1.1777,0,1.1567,1.1567,1.1615,1.1629,1.1634,1.1667,1.1679,1.1706,1.1709,1.1746,1.1755,1.176,1.1793,1.1793,1.1831,1.1831,1.1887,1.188,1.188,1.1879,1.1915,1.1912,1.2034,1.205,1.1944,1.1945,1.1946,0,1.1619,1.1649,1.1667,1.1685,1.1696,1.1726,1.1744,1.1739,1.1759,1.1782,1.1806,1.1838,1.1863,1.1917,1.1924,1.1953,1.1947,1.1988,1.1952,1.1953,1.1948,1.1946,1.1949,1.1995,1.1996,1.1997,1.1998,0,1.1711,1.171,1.1736,1.1762,1.1784,1.1805,1.1824,1.184,1.1838,1.1861,1.1894,1.1914,1.1953,1.1984,1.2013,1.2023,1.2011,1.201,1.202,1.2022,1.202,1.2021,1.1899,1.2007,1.2006,1.2005,1.2005,1.2004,1.1777,1.1804,1.1821,1.1851,1.1865,1.1883,1.1909,1.1916,1.1943,1.1974,1.197,1.2007,1.2026,1.2062,1.2075,1.2105,1.2091,1.2105,1.2109,1.2112,1.2116,1.2016,1.211,1.211,1.2109,1.2109,1.2109,0,1.1868,1.1878,1.1906,1.1933,1.1957,1.1943,1.1964,1.1985,1.2018,1.2036,1.2061,1.21,1.2131,1.2141,1.2171,1.2193,1.2188,1.2201,1.2199,1.2202,1.2127,1.2115,1.2204,1.2204,1.2204,1.2204,1.2204,1.2204,1.1918,1.1963,1.1964,1.2016,1.2026,1.2062,1.2075,1.2093,1.2107,1.2151,1.2176,1.2183,1.2198,1.2229,1.2257,1.226,1.2271,1.2287,1.2287,1.2217,1.2207,1.2198,1.2187,1.2289,1.229,1.2359,1.236,1.236]},{"header":{"parameterUnit":"m.s-1","parameterCategory":1,"la1":30.2991,"la2":30.254,"lo1":-89.0895,"lo2":-89.0444,"dy":0.0017,"dx":0.0017,"nx":28,"ny":28,"refTime":"2025-03-13T09:00:00:Z","depth":0,"parameterNumber":3,"parameterNumberName":"V-component_of_WINDS"},"data":[0,0,0,0,0,0,0,0,0,0,0,0,0,0,0,0,0,0,0,0,0,0,0,0,0,0,0,0,0,0,0,0,0,0,0,0,0,0,0,0,0,0,0,0,0,0,0,0,0,0,0,0,0,0,0,0,0,0,2.5619,2.5619,0,2.565,2.5651,2.5651,2.5638,2.5637,2.5636,2.5636,2.5666,2.5667,2.5669,0,0,0,0,0,0,0,0,0,0,0,0,0,2.5546,2.5548,2.5619,2.5619,2.562,2.565,2.5651,2.5651,2.5638,2.5637,2.5636,2.5635,2.5665,2.5667,2.5669,0,0,0,0,0,0,0,0,0,0,0,0,0,2.5578,2.5548,2.5619,2.5617,2.5617,2.565,2.5651,2.5651,2.5638,2.5637,2.5636,2.5635,2.5665,2.5667,2.5669,2.5705,0,0,2.5676,2.5677,0,0,0,0,0,0,0,0,2.5576,2.558,2.5617,2.5617,2.5617,2.5639,2.5636,2.5669,2.5639,2.563,2.5636,2.5634,2.5658,2.566,2.5669,2.5707,2.5708,2.5676,2.5677,2.5678,2.5679,0,0,0,0,0,0,0,2.5574,2.5579,2.5631,2.5617,2.5618,2.5614,2.5617,2.5642,2.565,2.5631,2.563,2.5634,2.5658,2.5667,2.5669,2.5708,2.5676,2.5678,2.5679,2.568,2.5778,2.578,0,0,0,0,0,0,2.5572,2.5577,2.563,2.5632,2.5594,2.5616,2.562,2.5633,2.5649,2.5651,2.5635,2.5633,2.5663,2.5667,2.567,2.5714,2.5678,2.568,2.5682,2.5777,2.5779,2.578,0,0,0,0,0,0,2.557,2.5577,2.5629,2.5605,2.5611,2.5619,2.5634,2.5634,2.5643,2.5653,2.5654,2.5643,2.5663,2.5667,2.5697,2.5715,2.5681,2.5684,2.5776,2.5778,2.5779,2.5802,0,0,0,0,0,0,2.5568,2.5576,2.559,2.5605,2.5612,2.5656,2.5635,2.5636,2.5648,2.5646,2.566,2.5662,2.5662,2.5694,2.5699,2.5718,2.5685,2.5774,2.5776,2.5779,2.58,2.5805,2.5809,0,0,0,0,0,2.5566,2.5595,2.5591,2.5598,2.563,2.5657,2.5661,2.5662,2.5649,2.5663,2.5669,2.5661,2.5712,2.5697,2.5703,2.5722,2.5773,2.5776,2.5779,2.5798,2.5804,2.5809,0,0,0,0,0,0,2.5581,2.5597,2.5593,2.5628,2.5641,2.5655,2.5672,2.5668,2.5684,2.5682,2.5681,2.5684,2.5715,2.5722,2.5704,2.5759,2.5741,2.5745,2.5753,2.5759,2.5763,2.5761,2.5687,0,0,0,0,0,2.5589,2.561,2.5622,2.5652,2.5659,2.5665,2.5676,2.5676,2.5689,2.5694,2.5702,2.5715,2.5735,2.5747,2.5765,2.5801,2.5804,2.5817,2.5822,2.5825,2.5829,2.5849,2.5855,2.5789,2.5789,2.5789,0,0,2.5605,2.5616,2.5629,2.5655,2.5666,2.5687,2.5669,2.5692,2.5708,2.5698,2.5727,2.5733,2.5748,2.5781,2.5796,2.5787,2.5848,2.5829,2.5832,2.5833,2.5852,2.5858,2.5864,2.5791,2.5791,2.5791,0,0,2.5644,2.5655,2.5681,2.5692,2.5708,2.5712,2.5719,2.5733,2.5737,2.5767,2.5759,2.5778,2.581,2.5821,2.5831,2.5876,2.5869,2.5881,2.5905,2.5924,2.5929,2.5934,2.595,2.5956,2.5885,2.5885,2.5885,0,2.5662,2.5694,2.5695,2.5719,2.5731,2.5724,2.575,2.576,2.5781,2.579,2.578,2.5821,2.583,2.5866,2.5877,2.5885,2.5892,2.588,2.5929,2.5933,2.5938,2.5953,2.5959,2.5887,2.5886,2.5886,2.5886,0,2.5715,2.5737,2.5757,2.5778,2.5792,2.5817,2.5822,2.5836,2.5834,2.5839,2.5869,2.588,2.59,2.5908,2.5906,2.5944,2.5938,2.5929,2.5911,2.5945,2.596,2.5966,2.5889,2.5888,2.5888,2.5887,0,0,2.5765,2.5787,2.5794,2.5805,2.5822,2.584,2.5864,2.5885,2.5897,2.5912,2.5933,2.5961,2.5953,2.5964,2.5963,2.598,2.6015,2.5968,2.5968,2.5977,2.6058,2.6066,2.6072,2.6011,2.6012,2.6013,2.6057,0,2.5806,2.5851,2.5853,2.5893,2.5914,2.5907,2.5929,2.5942,2.5947,2.5966,2.5971,2.5991,2.5978,2.5985,2.6001,2.6008,2.6032,2.6004,2.603,2.6031,2.6027,2.608,2.6088,2.6129,2.6063,2.6064,2.6064,0,2.586,2.5878,2.5921,2.5937,2.5945,2.5965,2.5985,2.6002,2.6017,2.6019,2.6032,2.6029,2.6054,2.6036,2.607,2.6052,2.6062,2.6067,2.6068,2.6071,2.605,2.6084,2.6142,2.6148,2.6073,2.6072,2.6072,0,2.5893,2.5928,2.5958,2.5967,2.5985,2.5999,2.6008,2.6021,2.6034,2.6051,2.6059,2.6078,2.6089,2.6104,2.6106,2.6092,2.614,2.6122,2.6143,2.6143,2.6154,2.6153,2.6214,2.616,2.616,2.616,2.616,0,2.5939,2.5966,2.5973,2.5992,2.6021,2.6023,2.6052,2.6059,2.6071,2.6091,2.6086,2.6105,2.6106,2.6125,2.6127,2.6155,2.616,2.6162,2.6163,2.6163,2.6163,2.617,2.6167,2.6162,2.6161,2.6161,2.6161,0,2.5981,2.5987,2.602,2.6035,2.604,2.6061,2.6074,2.6091,2.6096,2.6121,2.6127,2.6135,2.6157,2.6161,2.6186,2.6187,2.6221,2.6218,2.6217,2.6217,2.6238,2.6236,2.6306,2.6316,2.6255,2.6256,2.6256,0,2.601,2.6031,2.6049,2.6062,2.6072,2.6093,2.6106,2.6108,2.6122,2.6141,2.6157,2.6178,2.6196,2.6231,2.6238,2.6258,2.6256,2.6279,2.6259,2.6259,2.6257,2.6255,2.6258,2.6283,2.6284,2.6284,2.6284,0,2.6061,2.6064,2.6083,2.6105,2.6121,2.6137,2.6153,2.6164,2.6168,2.6184,2.6207,2.6221,2.6247,2.6269,2.6289,2.6296,2.6291,2.6291,2.6297,2.6298,2.6296,2.6298,2.6228,2.6289,2.6289,2.6288,2.6288,2.6288,2.6098,2.6116,2.6132,2.6155,2.6167,2.6182,2.6199,2.6207,2.6227,2.6249,2.6249,2.6275,2.6289,2.6315,2.6324,2.6344,2.6336,2.6345,2.6347,2.6349,2.6352,2.6293,2.6347,2.6347,2.6347,2.6347,2.6347,0,2.615,2.616,2.6181,2.6203,2.6221,2.6215,2.6232,2.6247,2.627,2.6284,2.6302,2.6329,2.635,2.6359,2.638,2.6394,2.6392,2.6399,2.6398,2.64,2.6357,2.635,2.64,2.64,2.64,2.64,2.64,2.64,2.6179,2.6209,2.6214,2.625,2.626,2.6286,2.6296,2.631,2.6321,2.6352,2.637,2.6376,2.6388,2.641,2.6429,2.6431,2.6439,2.6448,2.6449,2.6408,2.6403,2.6398,2.6391,2.6449,2.6449,2.649,2.6491,2.6491]}]]